Tracking 27111 objects as of 28-Mar-2023
HD Live streaming from Space Station
objects crossing your sky now

GUARANISAT-1 (BIRDS-4)


GUARANISAT-1 (BIRDS-4) is no longer on orbit
GUARANISAT-1 (BIRDS-4) is classified as:


NORAD ID: 47931
Int'l Code: 1998-067SH
Perigee: N/A
Apogee: N/A
Inclination: N/A
Period: N/A
Semi major axis: N/A
RCS: N/A
Launch date: November 20, 1998
Source: (TBD)
Launch site: TYURATAM MISSILE AND SPACE COMPLEX (TTMTR)
Decay date: 2022-07-05

Uplink (MHz): 145.825
Downlink (MHz): 145.825
Beacon (MHz): 437.375
Mode: 1k2AFSK/4k8FSK APRS CW
Call sign: JG6YMZ
Status: Reentered

Your satellite tracking list
Your tracking list is empty




NASA's NSSDC Master Catalog

Two Line Element Set (TLE):
1 47931U 98067SH  22185.91280436  .06972440  12364-4  70134-3 0  9995
2 47931  51.6128 206.4904 0003538 317.0160  43.0588 16.37231343 74610
Source of the keplerian elements: Caltech